Flag for Egypt Weather past 2 weeks in Port Said, Egypt

Now
63 °F

Clear.


Feels Like: 63 °F
Forecast: 66 / 80 °F
Wind: 9 mph from Southwest

Location: Port Said Airport

Current Time: Apr 28, 2015 at 8:31:14 AM

Latest Report: Apr 28, 2015 at 7:00 AM


Visibility: 4 mi

Pressure: 29.92 "Hg

Humidity: 88%

Dew point: 59 °F

Location of Port SaidLocation

Historic Weather in Port Said — Graph

°F

Port Said temperature yesterday

Maximum temperature yesterday: 77 °F (at 3:00 PM)
Minimum temperature yesterday: 64 °F (at 12:00 AM)
Average temperature yesterday: 70 °F

Past Weeks' High & Low Weather Summary

 TemperatureHumidityPressure
High91 °F (Apr 20, 2:00 PM)100% (Apr 26, 1:00 AM)30.30 "Hg (Apr 26, 1:00 AM)
Low55 °F (Apr 13, 7:00 AM)24% (Apr 20, 12:00 PM)29.77 "Hg (Apr 27, 6:00 PM)
Average66 °F71%30.07 "Hg
* Reported Apr 13 7:00 AM — Apr 28 7:00 AM, Port Said, Weather by CustomWeather, © 2015

Note: Actual official high and low records may vary slightly from our data, if they occured in-between our weather recording intervals... More about our weather records

Advertising

Port Said weather history for previous 24 hours

 ConditionsComfort  
Time TempWeatherWind HumidityBarometerVisibility
7:00 AM
Tue, Apr 28
63 °FClear.9 mph88%29.92 "Hg4 mi
6:00 AM63 °FSunny.6 mph94%29.89 "Hg10 mi
5:00 AM64 °FClear.12 mph88%29.83 "Hg10 mi
4:00 AM64 °FClear.13 mph88%29.83 "Hg10 mi
3:00 AM66 °FClear.13 mph83%29.83 "Hg10 mi
2:00 AM72 °FClear.14 mph69%29.86 "Hg10 mi
1:00 AM70 °FClear.5 mph73%29.83 "Hg10 mi
12:00 AM70 °FClear.5 mph73%29.89 "Hg10 mi
11:00 PM
Mon, Apr 27
70 °FClear.3 mph78%29.89 "Hg10 mi
10:00 PM70 °FClear.5 mph78%29.86 "Hg10 mi
9:00 PM70 °FClear.7 mph73%29.86 "Hg10 mi
8:00 PM70 °FClear.12 mph78%29.80 "Hg10 mi
7:00 PM72 °FClear.10 mph73%29.80 "Hg10 mi
6:00 PM72 °FSunny.12 mph73%29.77 "Hg10 mi
5:00 PM73 °FSunny.12 mph69%29.80 "Hg10 mi
4:00 PM75 °FSunny.12 mph74%29.80 "Hg10 mi
3:00 PM77 °FSunny.10 mph65%29.83 "Hg10 mi
2:00 PM75 °FSunny.12 mph74%29.83 "Hg10 mi
1:00 PM75 °FSunny.13 mph74%29.86 "Hg10 mi
12:00 PM75 °FSunny.12 mph74%29.86 "Hg10 mi
11:00 AM73 °FSunny.12 mph78%29.89 "Hg10 mi
10:00 AM75 °FSunny.7 mph69%29.89 "Hg10 mi
9:00 AM72 °FSunny.12 mph78%29.89 "Hg10 mi
8:00 AM70 °FSunny.12 mph83%29.89 "Hg10 mi
Weather by CustomWeather, © 2015

See weather overviewHow to use our weather pages